This is the latest recevied weather packets stored in our database for station/object K4GDX. If no packets are shown the sender has not sent any weather packets the latest 10 day(s).
| Time | Temp. | Humidity | Pressure | Rain* | Wind** | Luminosity | Snow |
|---|---|---|---|---|---|---|---|
| 1777469473 | 24.44° C | 80% | 1016.7 hPa | 0 mm | - | 404 W/m² | - |
| 1777469171 | 23.89° C | 80% | 1016.7 hPa | 0 mm | - | 445 W/m² | - |
| 1777468873 | 23.89° C | 82% | 1016.7 hPa | 0 mm | - | 311 W/m² | - |
| 1777468573 | 23.33° C | 83% | 1016.7 hPa | 0 mm | - | 302 W/m² | - |
| 1777468274 | 23.33° C | 83% | 1016.5 hPa | 0 mm | - | 294 W/m² | - |
| 1777467973 | 23.33° C | 84% | 1016.5 hPa | 0 mm | - | 330 W/m² | - |
| 1777467667 | 22.78° C | 84% | 1016.5 hPa | 0 mm | - | 297 W/m² | - |
| 1777467370 | 22.78° C | 85% | 1016.7 hPa | 0 mm | - | 350 W/m² | - |
| 1777467068 | 22.22° C | 85% | 1016.9 hPa | 0 mm | - | 390 W/m² | - |
| 1777466768 | 22.22° C | 85% | 1016.9 hPa | 0 mm | - | 193 W/m² | - |
| 1777466466 | 22.22° C | 85% | 1017.1 hPa | 0 mm | - | 165 W/m² | - |
| 1777466164 | 21.67° C | 87% | 1017.1 hPa | 0 mm | - | 142 W/m² | - |
| 1777465864 | 21.67° C | 88% | 1017.2 hPa | 0 mm | - | 181 W/m² | - |
| 1777465563 | 21.67° C | 88% | 1017.3 hPa | 0 mm | - | 185 W/m² | - |
| 1777465264 | 21.11° C | 89% | 1017.5 hPa | 0 mm | - | 179 W/m² | - |
| 1777464969 | 21.11° C | 89% | 1017.7 hPa | 0 mm | - | 135 W/m² | - |
| 1777464665 | 20.56° C | 90% | 1017.8 hPa | 0 mm | - | 188 W/m² | - |
| 1777464363 | 20.56° C | 91% | 1017.6 hPa | 0 mm | - | 199 W/m² | - |
| 1777464062 | 20° C | 91% | 1017.4 hPa | 0 mm | - | 185 W/m² | - |
| 1777463762 | 20° C | 91% | 1017.4 hPa | 0 mm | - | 69 W/m² | - |
| 1777463463 | 20° C | 91% | 1017.4 hPa | 0 mm | - | 46 W/m² | - |
| 1777463163 | 20° C | 91% | 1017.7 hPa | 0 mm | - | 37 W/m² | - |
| 1777462861 | 20° C | 91% | 1017.6 hPa | 0 mm | - | 30 W/m² | - |
| 1777462559 | 20° C | 91% | 1017.5 hPa | 0 mm | - | 23 W/m² | - |
| 1777462258 | 19.44° C | 91% | 1017.3 hPa | 0 mm | - | 23 W/m² | - |
* Rain latest hour (hover to see other rain measurements)
** Current wind speed in m/s (hover to see current wind gust speed)